Weather History for Savannah Hunter, GA

Change the Weather History Date:

Thursday, September 19, 2013

  Actual Average Record
Temperature  
Mean Temperature 74 °F -  
Max Temperature 84 °F 82 °F 91 °F (1997)
Min Temperature 65 °F 67 °F 62 °F (1996)
Cooling Degree Days 10    
Growing Degree Days 24 (Base 50)    
Moisture  
Dew Point 64 °F    
Average Humidity 70    
Maximum Humidity 93    
Minimum Humidity 55    
Precipitation  
Precipitation 0.00 in - - ()
Sea Level Pressure  
Sea Level Pressure 30.10 in    
Wind  
Wind Speed 6 mph (NE)    
Max Wind Speed 10 mph    
Max Gust Speed -    
Visibility 10 miles    
Events      
Averages and records for this station are not official NWS values.
T = Trace of Precipitation, MM = Missing Value Source: NWS Daily Summary

Daily Weather History Graph

Daily Weather History Graph

Search for Another Location

Airport:

Trip Planner

Search our weather history database for the weather conditions in past years. The results will help you decide how hot, cold, wet, or windy it might be!

Date:

Astronomy

Sep. 19, 2013 Rise Set
Actual Time 7:11 AM EDT 7:24 PM EDT
Civil Twilight 6:46 AM EDT 7:49 PM EDT
Nautical Twilight 6:18 AM EDT 8:17 PM EDT
Astronomical Twilight 5:49 AM EDT 8:46 PM EDT
Moon 7:27 PM EDT (9/19) 7:15 AM EDT (9/19)
Length of Visible Light 13h 02m
Length of Day
12h 13m
Full, 100% of the Moon is Illuminated
Sep 19
Full
Sep 26
Last Quarter
Oct 4
New
Oct 11
First Quarter
Oct 18
Full

Hourly Weather History & Observations

Time (EDT) Temp. Heat Index Dew Point Humidity Pressure Visibility Wind Dir Wind Speed Gust Speed Precip Events Conditions
12:58 AM 69.4 °F - 58.1 °F 67% 30.14 in 10.0 mi NNE 5.8 mph - N/A   Clear
1:58 AM 69.1 °F - 57.9 °F 68% 30.12 in 10.0 mi North 4.6 mph - N/A   Clear
2:58 AM 68.0 °F - 58.8 °F 72% 30.11 in 10.0 mi North 5.8 mph - N/A   Clear
3:58 AM 68.2 °F - 59.0 °F 72% 30.10 in 10.0 mi NNE 4.6 mph - N/A   Mostly Cloudy
4:58 AM 66.6 °F - 58.8 °F 76% 30.10 in 10.0 mi North 3.5 mph - N/A   Clear
5:58 AM 65.7 °F - 58.6 °F 78% 30.10 in 10.0 mi North 4.6 mph - N/A   Clear
6:58 AM 66.4 °F - 59.0 °F 77% 30.11 in 10.0 mi North 4.6 mph - N/A   Mostly Cloudy
7:58 AM 67.8 °F - 58.6 °F 72% 30.12 in 10.0 mi NNE 5.8 mph - N/A   Mostly Cloudy
8:58 AM 72.1 °F - 60.4 °F 67% 30.13 in 10.0 mi NNE 6.9 mph - N/A   Mostly Cloudy
9:58 AM 75.0 °F - 62.6 °F 65% 30.14 in 10.0 mi NNE 9.2 mph - N/A   Scattered Clouds
10:58 AM 80.2 °F 82.3 °F 66.0 °F 62% 30.14 in 10.0 mi NE 10.4 mph - N/A   Mostly Cloudy
11:56 AM 80.6 °F 82.7 °F 66.2 °F 61% 30.13 in 10.0 mi East 10.4 mph - N/A   Mostly Cloudy
12:56 PM 82.4 °F 84.6 °F 66.2 °F 58% 30.13 in 10.0 mi East 8.1 mph - N/A   Scattered Clouds
1:56 PM 84.2 °F 86.6 °F 66.2 °F 55% 30.11 in 10.0 mi ENE 5.8 mph - N/A   Mostly Cloudy
2:56 PM 82.4 °F 85.4 °F 68.0 °F 62% 30.09 in 10.0 mi East 8.1 mph - N/A   Scattered Clouds
3:58 PM 82.9 °F 85.8 °F 67.8 °F 60% 30.08 in 10.0 mi ESE 6.9 mph - N/A   Partly Cloudy
4:58 PM 81.3 °F 83.8 °F 67.1 °F 62% 30.07 in 10.0 mi ENE 8.1 mph - N/A   Scattered Clouds
5:58 PM 80.4 °F 83.0 °F 67.5 °F 65% 30.08 in 10.0 mi SE 9.2 mph - N/A   Clear
6:58 PM 77.5 °F - 67.1 °F 70% 30.08 in 10.0 mi ESE 8.1 mph - N/A   Clear
7:58 PM 74.5 °F - 67.1 °F 78% 30.08 in 10.0 mi ESE 4.6 mph - N/A   Clear
8:58 PM 73.0 °F - 67.3 °F 82% 30.09 in 10.0 mi ESE 2.3 mph - N/A   Clear
10:58 PM 70.2 °F - 66.9 °F 89% 30.08 in 10.0 mi Calm Calm - N/A   Clear
11:58 PM 68.5 °F - 66.6 °F 93% 30.07 in 10.0 mi Calm Calm - N/A   Clear